Aérodrome :
LOGIN :

S'inscrire | Disclaimer

   EN    FR    IT 

 










Légende :    VFR   VFR Marginal   IFR   IFR Intensif   IFR Très Intensif
Visi : 
Plafond : 
>= 8 km
>= 3000ft
5 à 8 km
1000 à 3000 ft
1500m à 5 km
500 à 1000 ft
800 à 1500m
200 à 500 ft
< 800m
< 200 ft
Symboles :   Orages  Brouillard  Fortes neiges  Fortes précipitations  Vent > 20 kt
SIGMETs :   Divers  Orages  Givrage  Turbulence  Onde Orograph.  Cendres Volcan.






- Altitude de l'aérodrome : 245 ft


ETHS - Fassberg

DERNIER METAR :
  • 291420Z AUTO VRB03KT 5000 // ////// 20/01 Q1027 ///

METARs EXPIRÉS :
  • 291320Z AUTO 09006KT 5000 // ////// 19/00 Q1028 ///
  • 291220Z AUTO 12006KT 5000 // ////// 19/02 Q1028 ///

TAF TAF ETHS
Valide du 29 à 08h jusqu'au 29 à 17h UTC


290720Z 2908/2917 09006KT 9999 NSW SKC



MET'MAP, la Météo Aéronautique d'un coup d'oeil ! - Copyright ORBIFLY Décembre 2007 - Disclaimer

ORBIFLY MET'MAP TEAM :

Programmation & Développement : Alexandra Zaïnal
Sur une idée originale de : Baudouin d'Aumeries
Assistance à la programmation : Marc-Olivier Méhu
Soutien technique & logistique : Manuel Goepfert

Contact : metmap@orbifly.com




SOURCES & CREDITS :

   NOAA